Lord Howe Island Observation History
Time Wind Speed Temp Pressure Rel. Hum Rain
04/07:00am SW 15-30 kts 16.7°c 1020.6 hPa 65% 3.2mm
04/06:30am SSW 17-28 kts 15.8°c 1020.2 hPa 67% 3.2mm
04/06:09am SSW 15-30 kts 16.7°c 1019.8 hPa 64% 3.2mm
04/06:00am SSW 13-24 kts 16.2°c 1019.8 hPa 65% 3.2mm
04/05:30am SSW 15-25 kts 16.5°c 1019.4 hPa 70% 3.2mm
04/05:11am SW 15-25 kts 16.3°c 1019.3 hPa 68% 3.2mm
04/05:00am SSW 15-23 kts 16.6°c 1019.0 hPa 65% 3.2mm
04/04:30am SSW 15-27 kts 15.9°c 1018.6 hPa 65% 3.2mm
04/04:00am SSW 19-33 kts 16.2°c 1018.5 hPa 73% 3.2mm
04/03:54am SW 15-32 kts 16.1°c 1018.4 hPa 73% 3.2mm
04/03:30am SW 14-22 kts 16.0°c 1018.5 hPa 75% 3.2mm
04/03:18am SSW 16-26 kts 15.7°c 1018.4 hPa 75% 3.2mm
04/03:00am SW 16-28 kts 14.6°c 1018.7 hPa 85% 3.2mm
04/02:57am SW 15-27 kts 15.8°c 1018.5 hPa 77% 2.8mm
04/02:41am SW 14-22 kts 15.9°c 1018.5 hPa 76% 2.6mm
04/02:30am SSW 16-27 kts 14.7°c 1018.5 hPa 80% 2.6mm
04/02:20am SW 19-31 kts 14.7°c 1018.8 hPa 84% 1.8mm
04/02:00am SW 15-25 kts 17.6°c 1018.1 hPa 63% 1.0mm
04/01:47am SW 15-26 kts 17.4°c 1018.1 hPa 59% 1.0mm
04/01:30am SW 15-23 kts 17.7°c 1018.2 hPa 65% 1.0mm
04/01:00am SW 16-29 kts 16.6°c 1018.0 hPa 73% 1.0mm
04/12:30am SW 17-30 kts 17.5°c 1017.9 hPa 65% 1.0mm
04/12:00am SW 16-28 kts 17.9°c 1017.7 hPa 68% 1.0mm
Time Wind Speed Temp Pressure Rel. Hum Rain
03/11:49pm SW 15-30 kts 17.7°c 1017.7 hPa 70% 1.0mm
03/11:30pm SSW 13-23 kts 16.4°c 1017.8 hPa 79% 1.0mm
03/11:00pm SW 17-27 kts 17.4°c 1017.6 hPa 76% 1.0mm
03/10:57pm SW 17-27 kts 17.6°c 1017.6 hPa 75% 1.0mm
03/10:30pm SW 14-24 kts 17.7°c 1017.5 hPa 74% 1.0mm
03/10:00pm SW 16-23 kts 17.7°c 1017.3 hPa 76% 1.0mm
03/09:30pm SW 15-23 kts 18.0°c 1017.0 hPa 72% 1.0mm
03/09:02pm SW 13-23 kts 17.9°c 1017.0 hPa 80% 1.0mm
03/09:00pm SW 13-23 kts 17.7°c 1016.9 hPa 79% 1.0mm
03/08:44pm SW 20-34 kts 16.4°c 1017.1 hPa 84% 1.0mm
03/08:35pm WSW 17-29 kts 18.6°c 1016.4 hPa 77% 0.6mm
03/08:30pm WSW 16-23 kts 18.2°c 1016.4 hPa 77% 0.6mm
03/08:06pm SW 15-27 kts 18.5°c 1016.4 hPa 76% 0.6mm
03/08:00pm SW 16-23 kts 18.4°c 1016.4 hPa 73% 0.6mm
03/07:30pm WSW 19-29 kts 19.1°c 1015.9 hPa 68% 0.6mm
03/07:00pm WSW 22-33 kts 19.6°c 1015.5 hPa 68% 0.6mm
03/06:58pm WSW 21-31 kts 19.5°c 1015.4 hPa 68% 0.6mm
03/06:30pm WSW 21-29 kts 19.3°c 1015.3 hPa 69% 0.6mm
03/06:00pm WSW 20-30 kts 19.4°c 1015.0 hPa 71% 0.6mm
03/05:53pm SW 20-30 kts 19.3°c 1014.9 hPa 67% 0.6mm
03/05:30pm WSW 21-28 kts 18.6°c 1014.9 hPa 74% 0.6mm
03/05:11pm SW 18-28 kts 18.1°c 1014.9 hPa 73% 0.6mm
03/05:00pm WSW 21-29 kts 18.9°c 1014.6 hPa 76% 0.6mm
03/04:40pm WSW 19-30 kts 18.7°c 1014.5 hPa 74% 0.6mm
03/04:30pm SW 20-27 kts 18.6°c 1014.5 hPa 75% 0.6mm
03/04:00pm SW 21-33 kts 18.4°c 1014.5 hPa 80% 0.6mm
03/03:31pm WSW 23-33 kts 18.9°c 1014.0 hPa 81% 0.6mm
03/03:30pm WSW 24-33 kts 18.9°c 1014.0 hPa 80% 0.6mm
03/03:08pm WSW 25-35 kts 18.8°c 1013.5 hPa 79% 0.6mm
03/03:00pm WSW 24-33 kts 19.6°c 1013.4 hPa 76% 0.6mm
03/02:48pm WSW 23-33 kts 19.5°c 1013.2 hPa 76% 0.6mm
03/02:30pm WSW 24-30 kts 19.8°c 1013.1 hPa 73% 0.6mm
03/02:13pm WSW 25-35 kts 20.0°c 1013.2 hPa 77% 0.6mm
03/02:00pm WSW 24-32 kts 20.2°c 1013.1 hPa 76% 0.6mm
03/01:30pm WSW 27-33 kts 20.1°c 1012.9 hPa 74% 0.6mm
03/01:23pm WSW 23-33 kts 20.3°c 1012.9 hPa 74% 0.6mm
03/01:00pm WSW 22-31 kts 20.3°c 1012.8 hPa 72% 0.6mm
03/12:40pm WSW 22-33 kts 20.3°c 1012.7 hPa 74% 0.6mm
03/12:30pm WSW 22-29 kts 20.6°c 1012.8 hPa 71% 0.6mm
03/12:00pm WSW 20-27 kts 20.3°c 1012.9 hPa 71% 0.6mm
03/11:30am WSW 20-27 kts 20.6°c 1013.2 hPa 67% 0.6mm
03/11:00am WSW 21-29 kts 20.7°c 1013.4 hPa 70% 0.6mm
03/10:53am SW 19-29 kts 20.6°c 1013.5 hPa 71% 0.6mm
03/10:30am WSW 18-27 kts 20.5°c 1013.6 hPa 72% 0.6mm
03/10:11am SW 15-25 kts 20.0°c 1013.8 hPa 81% 0.6mm
03/10:00am WSW 17-23 kts 20.3°c 1013.6 hPa 75% 0.6mm
03/09:32am WSW 17-27 kts 19.9°c 1013.7 hPa 76% 0.6mm
03/09:30am WSW 18-25 kts 19.9°c 1013.7 hPa 77% 0.6mm
03/09:10am SW 16-26 kts 18.3°c 1013.7 hPa 81% 0.6mm
03/09:00am SW 16-22 kts 20.1°c 1013.5 hPa 76% 0.0mm
03/08:30am WSW 20-28 kts 20.0°c 1013.1 hPa 78% 1.6mm
03/08:00am WSW 18-24 kts 20.2°c 1012.7 hPa 74% 1.6mm
03/07:30am WSW 20-26 kts 19.8°c 1012.7 hPa 73% 1.6mm
03/07:08am WSW 19-32 kts 19.7°c 1012.5 hPa 75% 1.6mm
03/07:00am WSW 21-27 kts 19.8°c 1012.4 hPa 69% 1.6mm
03/06:30am WSW 20-27 kts 19.7°c 1011.9 hPa 65% 1.6mm
03/06:00am WSW 20-27 kts 19.5°c 1011.4 hPa 69% 1.6mm
03/05:38am WSW 21-31 kts 19.3°c 1011.0 hPa 66% 1.6mm
03/05:30am WSW 24-30 kts 19.3°c 1010.9 hPa 68% 1.6mm
03/05:00am WSW 25-33 kts 19.2°c 1010.6 hPa 65% 1.6mm
03/04:30am WSW 23-31 kts 19.2°c 1010.2 hPa 67% 1.6mm
03/04:04am WSW 21-31 kts 19.0°c 1009.8 hPa 65% 1.6mm
03/04:00am WSW 21-28 kts 18.9°c 1009.7 hPa 65% 1.6mm
03/03:56am WSW 22-32 kts 18.8°c 1009.7 hPa 65% 1.6mm
03/03:30am WSW 26-34 kts 18.8°c 1010.3 hPa 63% 1.6mm
03/03:05am WSW 21-33 kts 18.5°c 1010.2 hPa 62% 1.6mm
03/03:00am WSW 21-29 kts 18.2°c 1010.1 hPa 61% 1.6mm
03/02:32am WSW 22-35 kts 18.1°c 1010.2 hPa 64% 1.6mm
03/02:30am WSW 22-30 kts 18.0°c 1010.3 hPa 70% 1.6mm
03/02:00am WSW 24-30 kts 17.7°c 1010.1 hPa 69% 1.6mm
03/01:30am WSW 27-36 kts 17.5°c 1010.2 hPa 69% 1.6mm
03/01:25am WSW 26-36 kts 17.6°c 1010.1 hPa 67% 1.6mm
03/01:00am WSW 27-34 kts 17.4°c 1010.1 hPa 64% 1.6mm
03/12:30am W 24-29 kts 16.5°c 1010.0 hPa 75% 1.6mm
03/12:00am W 25-30 kts 16.1°c 1010.1 hPa 76% 1.6mm
Time Wind Speed Temp Pressure Rel. Hum Rain
02/11:30pm W 23-30 kts 15.5°c 1010.5 hPa 77% 1.6mm
02/11:00pm W 23-29 kts 15.4°c 1010.6 hPa 77% 1.6mm
02/10:30pm W 20-27 kts 15.8°c 1010.7 hPa 68% 1.6mm
02/10:00pm W 24-30 kts 16.2°c 1010.8 hPa 67% 1.6mm
02/09:30pm WSW 29-37 kts 16.4°c 1010.6 hPa 66% 1.6mm
02/09:00pm WSW 24-35 kts 14.5°c 1011.0 hPa 76% 1.6mm
02/08:34pm WSW 24-34 kts 15.6°c 1010.5 hPa 71% 1.6mm
02/08:30pm WSW 25-34 kts 15.5°c 1010.6 hPa 69% 1.6mm
02/08:17pm W 19-32 kts 15.6°c 1010.7 hPa 77% 1.4mm
02/08:04pm W 25-36 kts 14.1°c 1011.2 hPa 70% 0.8mm
02/08:02pm WSW 26-36 kts 14.6°c 1011.3 hPa 73% 0.8mm
02/08:00pm WSW 28-36 kts 15.0°c 1011.1 hPa 71% 0.6mm
02/07:54pm WSW 26-36 kts 15.6°c 1010.5 hPa 71% 0.6mm
02/07:46pm WSW 27-36 kts 15.8°c 1010.4 hPa 65% 0.6mm
02/07:31pm WSW 18-29 kts 16.0°c 1010.3 hPa 69% 0.6mm
02/07:30pm WSW 17-26 kts 15.9°c 1010.4 hPa 69% 0.6mm
02/07:00pm WSW 20-32 kts 17.1°c 1009.9 hPa 68% 0.6mm
02/06:30pm WSW 23-29 kts 16.7°c 1009.7 hPa 70% 0.6mm
02/06:00pm WSW 24-35 kts 16.6°c 1009.7 hPa 65% 0.6mm
02/05:30pm W 24-33 kts 17.3°c 1009.4 hPa 68% 0.6mm
02/05:22pm W 22-33 kts 17.5°c 1009.2 hPa 70% 0.6mm
02/05:00pm W 25-33 kts 17.7°c 1009.1 hPa 66% 0.6mm
02/04:30pm W 23-30 kts 17.6°c 1008.9 hPa 75% 0.6mm
02/04:00pm WSW 19-25 kts 16.8°c 1008.7 hPa 89% 0.6mm
02/03:36pm W 22-34 kts 18.0°c 1008.2 hPa 81% 0.6mm
02/03:30pm W 21-27 kts 17.9°c 1008.1 hPa 78% 0.6mm
02/03:00pm W 22-29 kts 18.0°c 1007.6 hPa 82% 0.6mm
02/02:52pm W 15-29 kts 18.3°c 1007.5 hPa 84% 0.4mm
02/02:30pm WNW 12-20 kts 18.9°c 1008.0 hPa 73% 0.4mm
02/02:00pm N 8-21 kts 18.1°c 1008.0 hPa 74% 0.2mm
02/01:30pm WSW 7-9 kts 17.7°c 1008.1 hPa 82% 0.2mm
02/01:00pm W 17-25 kts 17.5°c 1008.9 hPa 88% 0.2mm
02/12:46pm WNW 14-26 kts 17.8°c 1009.2 hPa 81% 0.0mm
02/12:30pm NE 12-15 kts 19.4°c 1008.9 hPa 78% 0.0mm
02/12:00pm ENE 14-17 kts 20.2°c 1009.0 hPa 75% 0.0mm
02/11:30am ENE 17-21 kts 19.4°c 1009.2 hPa 79% 0.0mm
02/11:00am ENE 15-19 kts 18.2°c 1010.4 hPa 82% 0.0mm
02/10:30am E 11-15 kts 17.8°c 1011.4 hPa 87% 0.0mm
02/10:00am SSW 4-5 kts 18.0°c 1013.1 hPa 85% 0.0mm
02/09:30am SW 6-9 kts 18.0°c 1013.3 hPa 85% 0.0mm
02/09:00am SW 8-13 kts 18.5°c 1013.5 hPa 86% 0.0mm
02/08:30am SW 10-16 kts 18.5°c 1013.2 hPa 85% 3.2mm
02/08:00am SW 13-23 kts 18.5°c 1013.1 hPa 90% 3.2mm
02/07:38am W 18-30 kts 19.7°c 1012.4 hPa 81% 3.2mm
02/07:30am W 17-25 kts 19.6°c 1012.7 hPa 77% 3.2mm
02/07:20am WNW 15-27 kts 20.2°c 1012.9 hPa 73% 3.2mm
02/07:00am WNW 11-19 kts 20.3°c 1013.0 hPa 82% 3.2mm
02/06:30am NW 8-14 kts 19.6°c 1012.5 hPa 87% 3.2mm
02/06:00am NNW 9-15 kts 18.9°c 1012.4 hPa 80% 3.2mm
02/05:30am NNW 10-18 kts 21.0°c 1012.1 hPa 74% 2.4mm
02/05:00am NNW 10-18 kts 21.0°c 1012.1 hPa 75% 2.4mm
02/04:30am NW 8-16 kts 20.1°c 1011.9 hPa 83% 2.4mm
02/04:00am N 8-15 kts 19.7°c 1012.1 hPa 82% 2.4mm
02/03:30am NNW 8-17 kts 20.1°c 1012.5 hPa 81% 2.4mm
02/03:00am NNW 10-18 kts 20.3°c 1013.0 hPa 77% 2.4mm
02/02:30am NNW 7-16 kts 20.3°c 1013.1 hPa 77% 2.4mm
02/02:00am NNW 8-19 kts 20.5°c 1013.4 hPa 75% 2.4mm
02/01:30am NNW 11-19 kts 20.4°c 1013.9 hPa 78% 2.4mm
02/01:00am N 9-19 kts 20.1°c 1013.7 hPa 79% 2.4mm
02/12:30am NNE 7-16 kts 19.6°c 1014.2 hPa 78% 2.4mm
02/12:00am N 5-9 kts 19.5°c 1014.7 hPa 83% 2.4mm